Погода в Сеяхе

Погода в Сеяхе : погода сейчас, прогноз погоды и архив. Всё, что Вы хотите узнать о погоде в Сеяхе!

Хотите узнать прогноз погоды в Сеяхе? Тогда Вам сюда: Погода в Сеяхе

Поиск расширенной информации на нашем сайте:

Другие новости

Новости СМИ2

Главная страница сайта

Новости сайта

03.07.2017

Напоминаем, что на нашем специализированном сайте Метеоцентр.Азия вы можете получить высокодетализированные автоматические прогнозы погоды по пунктам России, СНГ и мира в авиационном формате (включающие направление и скорость ветра, видимость, явления погоды, количество и форму облачности, нижнюю и верхнюю границу облачности).


Погода в Сеяхе - сегодня

Время (UTC), дата Ветер
(°,м/с) 
Видим.   Явления Облачность Т
(°С)
Тd
(°С)
f(%) Тe
(°С)
Pmin
(гПа)
dP
(гПа)
Po
(мм)
O2
(г/м3)
Тmin Tmax R s Состояние
почвы
00 09.08.18 080 (В) 0500 м  дождь{морось}  ?/?  
+11.2 +10.8 97 +12  997.1  -1  746  287           
03 09.08.18 020 (С) 0500 м  дождь{туман}  ?/?  
+11.1 +10.6 97 +12  996  -1  745  287  +11.1    10    мокрая 
15 09.08.18 300 (СЗ) 4{12}  20000 м  {дождь}  10/10 360 м 
[Sc]
+9.2 +8 92 +8  1001.4  1.2  749  291    +11.5     
21 09.08.18 260 (З) 6{13}  20000 м    8/3 600 м средняя 
[Sc|Ac trans]
+6.4 +5.3 93 +4  1001.7  -0.2  750  294           
03 10.08.18 250 (З) 20000 м    9/9 720 м 
[Sc]
+7.8 +4.7 81 +6  1000.3  -1  749  293  +6.1        мокрая 
12 10.08.18 180 (Ю) 5{11}  4000 м  слаб. ливневой дождь  9/9 270 м кучево-дожд. 
[Cb cap]
+9.9 +8.8 93 +9  993  -3.6  743  287           
15 10.08.18 310 (СЗ) 6{11}  4000 м  слаб. ливневой дождь  9/9 240 м кучево-дожд. 
[Cb cap]
+7.7 +6.9 95 +6  991.2  -1.8  742  290    +10.5     
21 10.08.18 270 (З) 6{11}  20000 м    9/9 600 м 
[Sc]
+5.4 +2.6 82 +3  992.4  0.6  743  293           
00 11.08.18 300 (СЗ) 20000 м    8/8 600 м 
[Sc]
+4.5 +1.7 82 +3  991.5  -0.9  742  294           
03 11.08.18 280 (З) 20000 м    9/9 300 м 
[Sc]
+4.7 +2.2 84 +3  990.6  -0.9  741  293  +4.3        мокрая 
09 11.08.18 240 (ЮЗ) 20000 м  {ливн. осадки}  9/9 300 м кучево-дожд. 
[Cb cap]
+8.5 +2.3 65 +9  989.9  -0.2  741  289           
15 11.08.18 220 (ЮЗ) 4000 м  слаб. ливневой дождь  9/9 300 м кучево-дожд. 
[Cb cap]
+5.2 +3.9 91 +6  989.4  -0.7  740  292    +9     
18 11.08.18 170 (Ю) 20000 м  в посл. час ливневой дождь  8/8 330 м кучево-дожд. 
[Cb cap]
+4.3 +3.2 93 +5  988.3  -1.1  740  293           
03 12.08.18 320 (СЗ) 20000 м    8/4 600 м средняя, верхняя 
[Cu med, cong|Ac trans|Ci fib]
+6.6 +4.7 88 +5  986.1  -0.6  738  290  +4.2      мокрая 
09 12.08.18 310 (СЗ) 20000 м    9/9 660 м кучево-дожд. 
[Cb cap]
+7.8 +5.8 87 +7  985.4  0.1  737  288           
15 12.08.18 330 (СЗ) 9-13{14}  4000 м  слаб. морось{ливн. осадки}  10/10 240 м 
[St]
+7.1 +6.4 95 +4  988.4  1.7  740  289    +10.1  0.5     
18 12.08.18 330 (СЗ) 9-13{14}  4000 м  слаб. морось{ливн. осадки}  10/10 240 м 
[St]
+7.1 +6.4 95 +4  988.4  1.7  740  289    +10.1  0.5     
03 13.08.18 270 (З) 10-15{15}  20000 м    10/10 270 м 
[Sc]
+6.1 +4.6 90 +3  990.4  0.4  741  291  +5.2    0.0    мокрая 
15 13.08.18 250 (З) 8-12{14}  20000 м    10/10 300 м 
[Sc]
+7.3 +5.1 86 +5  995.2  0.8  745  291    +9.5       
18 13.08.18 210 (ЮЗ) 4{12}  20000 м    10/10 360 м 
[Sc]
+7.7 +5.4 85 +6  995.5  0.3  745  291           
21 13.08.18 160 (Ю) 20000 м    10/10 420 м 
[Sc]
+7.8 +6.7 93 +8  994.6  -0.9  744  290           
03 14.08.18 150 (ЮВ) 20000 м  {дождь}  9/8 270 м средняя 
[Sc|Ac trans]
+11.3 +10.5 95 +12  990.5  -2.1  741  285  +6.6    0.0    мокрая 
09 14.08.18 210 (ЮЗ) 20000 м    9/4 600 м кучево-дожд., средняя 
[Cb cap|Ac trans]
+15.4 +13.8 90 +22  991.1  0.9  742  280           
03 15.08.18 260 (З) 9-12{13}  20000 м    10/10 210 м 
[St]
+8.1 +6.2 88 +5  998.6  2.5  747  291  +7.5    0.7    мокрая 
15 15.08.18 280 (З) 7-11{13}  20000 м    9/9 600 м 
[Sc]
+8.1 +4.3 77 +6  1006  1.4  753  294    +10.3  0.0     
Время (UTC), дата Ветер
(°,м/с) 
Видим.   Явления Облачность Т
(°С)
Тd
(°С)
f(%) Тe
(°С)
Pmin
(гПа)
dP
(гПа)
Po
(мм)
O2
(г/м3)
Тmin Tmax R s Состояние
почвы

Для получения пояснительной информации подведите курсор к названию столбца.

ПОГОДА в Сеяхе - архив

Всё, что Вы хотите узнать о погоде в Сеяхе - удобно и подробно!

Выберите нужную дату (начиная с 1 января 2015* года) и нажмите кнопку "Найти".
Будут отображены архивные сводки погоды по пункту Сеяха, начиная с указанной даты.


Отображать данные в формате CSV (для использования в таблицах Excel)


Внимание! Наш архив погоды предназначен исключительно для личного некоммерческого использования в познавательных целях. Если Вам необходимы официальные справки о состоянии погоды (для производственных, юридических, коммерческих и т.п. целей), обращайтесь в органы Росгидромета.

*Примечание: данная дата относится к архиву по метеостанциям СССР (Россия, СНГ, Балтия).
Архив по метеостанциям Зарубежной Европы и Азии (кроме Китая) хранится 10 дней, по другим регионам земного шара (Китай, Африка, Америка, Австралия, Океания) - 1 день.

Сеяха - район местоположения метеостанции


Название, широта, долгота, высота метеостанции:
Сеяха 70.2°ш. 72.5°д. 16 м над ур. моря [Российская Федерация]

Дополнительная информация

В oтличие oт бoльшинства пoгoдных сайтoв мы публикуем пoдрoбную метеoинфoрмацию в детальнoм прoфессиoнальнoм фoрмате.

Характеристики температуры и влажнoсти вoздуха измеряются на высoте 2 м в тени вдали oт зданий и деревьев.
Скoрoсть ветра измеряется на высoте 10 м (на урoвне рoста челoвека скoрoсть ветра ниже в 1.5-2 раза). Если метеoстанция нахoдится в гoрoде или в лесу, тo скoрoсть ветра занижена на 2-4 м/с пo сравнению с oткрытым местoм. Скoрoсть ветра над акватoриями крупных рек и oзёр, а также на вершинах хoлмoв на 2-5 м/с выше, чем в oбычных услoвиях.
Атмoсфернoе давление в разных тoчках местнoсти мoжет значительнo oтличаться oт давления на метеoстанции, в зависимoсти oт услoвий рельефа (при пoдъёме на 10 м давление пoнижается примернo на 1 мм рт.ст.).